Flag for Netherlands Weather past 2 weeks in Eindhoven, Netherlands

Now
37 °F

Fog.


Feels Like: 34 °F
Forecast: 36 / 49 °F
Wind: 5 mph from Northwest

Location: Eindhoven Airport

Current Time: Mar 5, 2015 at 3:44:56 AM

Latest Report: Mar 5, 2015 at 2:55 AM


Visibility: 6 mi

Pressure: 30.60 "Hg

Humidity: 93%

Dew point: 36 °F

Location of EindhovenLocation

Historic Weather in Eindhoven — Graph

°F

Eindhoven temperature yesterday

Maximum temperature yesterday: 48 °F (at 1:25 PM)
Minimum temperature yesterday: 34 °F (at 6:25 AM)
Average temperature yesterday: 40 °F

Past Weeks' High & Low Weather Summary

 TemperatureHumidityPressure
High55 °F (Mar 1, 1:55 PM)100% (Feb 18, 2:25 AM)30.74 "Hg (Feb 18, 2:25 AM)
Low25 °F (Feb 18, 2:25 AM)50% (Feb 28, 4:55 PM)29.33 "Hg (Feb 23, 5:25 AM)
Average40 °F85%29.89 "Hg
* Reported Feb 18 2:25 AM — Mar 5 2:55 AM, Eindhoven, Weather by CustomWeather, © 2015

Note: Actual official high and low records may vary slightly from our data, if they occured in-between our weather recording intervals... More about our weather records

Advertising

Eindhoven weather history for previous 24 hours

 ConditionsComfort  
Time TempWeatherWind HumidityBarometerVisibility
2:55 AM
Thu, Mar 5
37 °FFog.5 mph93%30.60 "Hg6 mi
2:25 AM37 °FChilly.5 mph93%30.57 "HgN/A
1:55 AM37 °FChilly.5 mph93%30.57 "HgN/A
1:25 AM37 °FPassing clouds.6 mph93%30.57 "HgN/A
12:55 AM39 °FChilly.6 mph87%30.54 "HgN/A
12:25 AM39 °FChilly.6 mph93%30.54 "HgN/A
11:55 PM
Wed, Mar 4
39 °FChilly.7 mph87%30.51 "HgN/A
11:25 PM39 °FPartly cloudy.7 mph93%30.51 "HgN/A
10:25 PM41 °FLight rain. Passing clouds.6 mph81%30.48 "HgN/A
9:55 PM39 °FPartly cloudy.7 mph87%30.48 "HgN/A
9:25 PM41 °FOvercast.7 mph81%30.45 "HgN/A
9:03 PM39 °FPassing clouds.8 mph87%30.45 "HgN/A
8:55 PM39 °FPassing clouds.7 mph87%30.45 "HgN/A
8:25 PM39 °FDrizzle. Mostly cloudy.5 mph87%30.42 "HgN/A
7:55 PM41 °FPassing clouds.8 mph81%30.42 "HgN/A
7:25 PM41 °FPassing clouds.13 mph81%30.39 "HgN/A
6:55 PM43 °FPartly cloudy.12 mph71%30.39 "HgN/A
6:25 PM43 °FPassing clouds.10 mph71%30.36 "HgN/A
5:55 PM43 °FScattered clouds.14 mph71%30.36 "HgN/A
5:25 PM45 °FScattered clouds.14 mph66%30.33 "HgN/A
4:55 PM46 °FBroken clouds.16 mph66%30.33 "HgN/A
4:25 PM45 °FBroken clouds.15 mph66%30.30 "HgN/A
3:55 PM45 °FBroken clouds.14 mph71%30.30 "HgN/A
3:25 PM45 °FMostly cloudy.16 mph71%30.30 "HgN/A
2:55 PM43 °FMore clouds than sun.12 mph76%30.30 "HgN/A
2:25 PM41 °FDrizzle. Broken clouds.17 mph81%30.30 "Hg4 mi
2:00 PM45 °FPartly sunny.16 mph66%30.27 "HgN/A
1:55 PM46 °FMostly cloudy.16 mph62%30.27 "HgN/A
1:25 PM48 °FPartly sunny.16 mph62%30.27 "HgN/A
12:55 PM45 °FPartly sunny.16 mph71%30.27 "HgN/A
12:25 PM45 °FMore clouds than sun.15 mph71%30.27 "HgN/A
12:00 PM45 °FBroken clouds.13 mph71%30.24 "HgN/A
11:55 AM43 °FBroken clouds.13 mph76%30.24 "HgN/A
11:25 AM43 °FBroken clouds.16 mph76%30.24 "HgN/A
10:55 AM43 °FMostly cloudy.16 mph76%30.24 "HgN/A
10:25 AM43 °FScattered clouds.15 mph81%30.24 "HgN/A
9:55 AM41 °FQuite cool.16 mph81%30.21 "HgN/A
9:25 AM39 °FChilly.15 mph81%30.21 "HgN/A
8:55 AM37 °FChilly.14 mph81%30.21 "HgN/A
8:25 AM36 °FChilly.13 mph87%30.18 "HgN/A
7:55 AM36 °FScattered clouds.12 mph87%30.18 "HgN/A
7:25 AM36 °FChilly.12 mph81%30.18 "HgN/A
6:55 AM36 °FChilly.12 mph81%30.15 "HgN/A
6:25 AM34 °FChilly.14 mph87%30.15 "HgN/A
5:55 AM36 °FPassing clouds.14 mph81%30.15 "HgN/A
5:25 AM36 °FChilly.14 mph87%30.15 "HgN/A
4:55 AM36 °FChilly.12 mph87%30.12 "HgN/A
4:25 AM36 °FChilly.13 mph87%30.12 "HgN/A
3:55 AM36 °FChilly.12 mph87%30.12 "HgN/A
3:25 AM36 °FChilly.12 mph93%30.12 "HgN/A
Weather by CustomWeather, © 2015

See weather overviewHow to use our weather pages